This demonstration page uses our WeatherBlox Daily Observations layout. Learn more.

Left ArrowRight Arrow

39.95238, -75.16362

Hourly Observations for April 6, 2015

Temp ( °F °C ) Dew Point ( °F °C ) Humidity (%) Winds ( mph kmh ) Pressure ( in mb ) Visibility ( mi km ) Precip ( " mm )
12:54 am 00:54 Clear 51 10.6 29 -1.7 43 43 SSW 9 15 30.25 1024 10 16 0.00 0.00
1:54 am 01:54 Mostly Clear 48 8.9 30 -1.1 50 50 SSW 6 9 30.25 1024 10 16 0.00 0.00
2:54 am 02:54 Partly Cloudy 46 7.8 31 -0.6 56 56 S 6 9 30.24 1024 10 16 0.00 0.00
3:54 am 03:54 Mostly Clear 43 6.1 31 -0.6 63 63 Calm 30.26 1025 10 16 0.00 0.00
4:54 am 04:54 Partly Cloudy 42 5.6 35 1.7 76 76 ESE 3 6 30.27 1025 10 16 0.00 0.00
5:54 am 05:54 Mostly Cloudy 41 5 34 1.1 76 76 ESE 3 6 30.27 1025 10 16 0.00 0.00
6:54 am 06:54 Mostly Cloudy 42 5.6 35 1.7 76 76 Calm 30.29 1026 10 16 0.00 0.00
7:54 am 07:54 Mostly Cloudy 44 6.7 37 2.8 76 76 E 3 6 30.29 1026 10 16 0.00 0.00
8:54 am 08:54 Mostly Cloudy 49 9.4 36 2.2 61 61 E 5 7 30.29 1026 10 16 0.00 0.00
9:54 am 09:54 Mostly Cloudy 55 12.8 36 2.2 49 49 ESE 3 6 30.30 1026 10 16 0.00 0.00
10:54 am 10:54 Partly Cloudy 58 14.4 35 1.7 42 42 S 7 11 30.29 1026 10 16 0.00 0.00
11:54 am 11:54 Partly Cloudy 62 16.7 34 1.1 35 35 VRB 6 9 30.27 1025 10 16 0.00 0.00
12:54 pm 12:54 Partly Cloudy 66 18.9 33 0.6 29 29 SW 12 19 30.25 1024 10 16 0.00 0.00
1:54 pm 13:54 Mostly Sunny 70 21.1 32 0 25 25 S 12 19 30.21 1023 10 16 0.00 0.00
2:54 pm 14:54 Mostly Sunny 73 22.8 29 -1.7 19 19 SW 21 33 30.17 1022 10 16 0.00 0.00
3:54 pm 15:54 Partly Cloudy 74 23.3 26 -3.3 17 17 SSW 21 33 30.14 1021 10 16 0.00 0.00
4:54 pm 16:54 Partly Cloudy 72 22.2 29 -1.7 20 20 SSW 21 33 30.12 1020 10 16 0.00 0.00
5:54 pm 17:54 Partly Cloudy 73 22.8 36 2.2 26 26 SW 17 28 30.12 1020 10 16 0.00 0.00
6:54 pm 18:54 Mostly Cloudy 71 21.7 42 5.6 35 35 SSW 15 24 30.13 1020 10 16 0.00 0.00
7:54 pm 19:54 Mostly Cloudy 67 19.4 44 6.7 44 44 SSW 9 15 30.14 1021 10 16 0.00 0.00
8:54 pm 20:54 Partly Cloudy 64 17.8 45 7.2 50 50 SSE 9 15 30.15 1021 10 16 0.00 0.00
9:54 pm 21:54 Mostly Cloudy 61 16.1 43 6.1 52 52 SSW 7 11 30.16 1021 10 16 0.00 0.00
10:54 pm 22:54 Mostly Cloudy 61 16.1 39 3.9 44 44 SSW 7 11 30.16 1022 10 16 0.00 0.00
11:54 pm 23:54 Partly Cloudy 60 15.6 40 4.4 47 47 SSW 6 9 30.16 1021 10 16 0.00 0.00

Powered by AerisWeather